Погода в Найнитале

Индия     29°23′34″N   79°27′07″E
темп.,
°C
ветер,
м/с
пор.,
м/с
влажн.,
%
обл.,
%
осадки,
мм/ч
давл.,
гПа
погр.,
м
15 апреля, чт
чт1523:30+18всв112252 0.0 101212
02:30+16св22271 0.0 101216
05:30+15св22291 0.0 101222
08:30+25зсз24150 0.0 10121847
11:30+29з34100 0.0 10113733
14:30+29зюз661060 0.0 10074717
17:30+27з471436 0.0 10063366
20:30+18св322884 0.0 101130
16 апреля, пт
пт1623:30+17св223039 0.0 101122
02:30+16св22324 0.0 101020
05:30+15св3233100 0.0 101127
08:30+24ссв21194 0.0 1011478
11:30+29з331110 0.0 10104250
14:30+29зюз651153 0.0 10064276
17:30+27зюз3514100 0.0 10061620
20:30+20сз0124100 0.0 101114
17 апреля, сб
сб1723:30+18ссз1134100 0.0 101221
02:30+17св3240100 0.1 101135
05:30+15ссв2253100 0.9 101235
08:30+18св3351100 0.6 1014150
11:30+21св333896 0.6 10151381
14:30+18всв345812 0.9 1013391
17:30+20ссв4444100 1.1 10111111
20:30+13св3389100 12.3 1016166
18 апреля, вс
вс1823:30+12ссв339093 12.7 101772
02:30+12св32790 0.2 101433
05:30+11св22750 0.2 101527
08:30+19св11450 0.0 1014311
11:30+24з35210 0.0 10122856
14:30+26зюз481717 0.0 10093945
17:30+23з492429 0.0 10092621
20:30+17ссв22404 0.0 101220
19 апреля, пн
пн1923:30+15св22464 0.0 101228
02:30+14св224749 0.0 101125
05:30+13св2245100 0.0 101020
08:30+22с1425100 0.0 1010637
11:30+27з491389 0.0 10083803
14:30+28з59105 0.0 10064641
17:30+25з48141 0.0 10061925
20:30+18ссв222014 0.0 100913